DW0108 Weather Reports


Display with metric or nautical units.
time (UTC)temp
F
wind
direction
speed
MPH
gust
MPH
rain 1hr
in
rain 24hr
in
rain mn
in
humidity
%
barometer
mb
20190221113835 39 179 0.0 2.0 0.00 0.00 0.00 83 1057.5
20190221112825 39 179 0.0 0.0 0.00 0.00 0.00 83 1057.5
20190221105814 40 179 0.0 0.0 0.00 0.00 0.00 81 1057.5
20190221104814 40 179 0.0 0.0 0.00 0.00 0.00 81 1057.5
20190221102835 40 179 0.0 0.0 0.00 0.00 0.00 81 1057.5
20190221101806 40 179 0.0 0.0 0.00 0.00 0.00 81 1057.5
20190221100824 40 179 0.0 0.0 0.00 0.00 0.00 81 1057.5
20190221095819 40 179 0.0 0.0 0.00 0.00 0.00 81 1057.5
20190221093808 39 179 0.0 0.0 0.00 0.00 0.00 80 1057.5
20190221092838 40 179 0.0 0.0 0.00 0.00 0.00 79 1057.5
20190221091833 40 179 0.0 0.0 0.00 0.00 0.00 79 1057.5
20190221090819 40 179 0.0 0.0 0.00 0.00 0.00 79 1057.5
20190221085843 40 179 0.0 0.0 0.00 0.00 0.00 78 1057.5
20190221083809 41 179 0.0 0.0 0.00 0.00 0.00 78 1057.5
20190221080818 41 179 0.0 0.0 0.00 0.00 0.00 76 1057.5
20190221075806 42 179 0.0 0.0 0.00 0.00 0.00 75 1057.5
20190221072848 43 179 0.0 0.0 0.00 0.00 0.00 73 1057.5
20190221071815 43 179 0.0 0.0 0.00 0.00 0.00 73 1057.5
20190221070833 44 179 0.0 0.0 0.00 0.00 0.00 72 1057.5
20190221063827 44 179 0.0 0.0 0.00 0.00 0.00 73 1058.2
20190221062845 44 179 0.0 1.0 0.00 0.00 0.00 72 1058.2
20190221055845 45 179 0.0 0.0 0.00 0.00 0.00 71 1057.5
20190221054828 45 179 0.0 2.0 0.00 0.00 0.00 72 1058.5
20190221052835 45 179 0.0 0.0 0.00 0.00 0.00 70 1058.5
20190221050832 45 179 0.0 1.0 0.00 0.00 0.00 69 1058.5
20190221044812 46 179 0.0 0.0 0.00 0.00 0.00 67 1058.5
20190221043836 46 179 0.0 0.0 0.00 0.00 0.00 68 1058.5
20190221042828 47 179 0.0 0.0 0.00 0.00 0.00 67 1058.5
20190221040840 47 179 0.0 3.0 0.00 0.00 0.00 66 1058.5
20190221035834 47 179 0.0 0.0 0.00 0.00 0.00 64 1058.5
20190221034848 48 179 0.0 0.0 0.00 0.00 0.00 62 1058.5
20190221032812 49 179 0.0 0.0 0.00 0.00 0.00 60 1058.5
20190221025848 50 179 0.0 0.0 0.00 0.00 0.00 56 1058.5
20190221024830 51 179 0.0 2.0 0.00 0.00 0.00 56 1058.5
20190221023827 51 177 1.0 4.0 0.00 0.00 0.00 56 1058.5
20190221020816 51 198 1.0 5.0 0.00 0.00 0.00 55 1058.5
20190221015825 51 206 1.0 3.0 0.00 0.00 0.00 55 1058.5
20190221013837 52 208 0.0 0.0 0.00 0.00 0.00 55 1058.5
20190221005830 54 209 0.0 2.0 0.00 0.00 0.00 49 1058.5
20190221004809 55 211 1.0 3.0 0.00 0.00 0.00 48 1058.5
20190221001809 57 200 0.0 2.0 0.00 0.00 0.00 37 1058.5
20190221000844 58 235 1.0 4.0 0.00 0.00 0.00 34 1058.5
20190220234831 59 294 0.0 0.0 0.00 0.00 0.00 31 1058.5
20190220232844 60 294 0.0 0.0 0.00 0.00 0.00 32 1058.5
20190220225817 61 294 0.0 3.0 0.00 0.00 0.00 27 1058.5
20190220223825 61 285 1.0 5.0 0.00 0.00 0.00 24 1058.5
20190220221838 62 260 2.0 5.0 0.00 0.00 0.00 25 1058.5
20190220220838 62 242 2.0 5.0 0.00 0.00 0.00 23 1058.5
20190220214827 63 251 2.0 7.0 0.00 0.00 0.00 22 1031.1
20190220213839 62 294 3.0 5.0 0.00 0.00 0.00 23 1031.1
20190220211823 61 176 2.0 6.0 0.00 0.00 0.00 25 1031.1
20190220204805 61 249 3.0 7.0 0.00 0.00 0.00 26 1031.1
20190220203809 61 226 4.0 10.0 0.00 0.00 0.00 25 1031.1
20190220202806 61 305 6.0 11.0 0.00 0.00 0.00 27 1031.1
20190220201825 60 235 3.0 7.0 0.00 0.00 0.00 28 1031.1
20190220200825 60 233 4.0 7.0 0.00 0.00 0.00 28 1031.1
20190220193818 59 280 4.0 7.0 0.00 0.00 0.00 31 1031.1
20190220192806 59 298 6.0 11.0 0.00 0.00 0.00 32 1031.1
20190220191838 58 224 3.0 7.0 0.00 0.00 0.00 33 1031.1
20190220190848 58 226 4.0 10.0 0.00 0.00 0.00 34 1031.1
20190220184836 57 258 3.0 6.0 0.00 0.00 0.00 39 1031.1
20190220183830 57 209 3.0 5.0 0.00 0.00 0.00 40 1031.1
20190220181826 56 256 3.0 9.0 0.00 0.00 0.00 43 1031.1
20190220175807 54 297 6.0 10.0 0.00 0.00 0.00 47 1031.1
20190220174846 54 304 4.0 6.0 0.00 0.00 0.00 50 1031.1
20190220173809 53 283 5.0 9.0 0.00 0.00 0.00 53 1031.1
20190220171824 51 282 4.0 10.0 0.00 0.00 0.00 57 1031.1
20190220155805 43 279 2.0 5.0 0.00 0.00 0.00 74 1031.1
20190220154826 43 294 1.0 4.0 0.00 0.00 0.00 75 1031.1
20190220141837 38 281 2.0 6.0 0.00 0.00 0.00 82 1031.1
20190220133825 38 289 2.0 7.0 0.00 0.00 0.00 83 1031.1
20190220132827 38 310 4.0 6.0 0.00 0.00 0.00 83 1031.1
20190220131838 38 299 3.0 10.0 0.00 0.00 0.00 83 1031.1
20190220130813 38 301 2.0 5.0 0.00 0.00 0.00 83 1031.1
20190220121815 38 287 3.0 6.0 0.00 0.00 0.00 84 1031.1
20190220120838 38 317 4.0 9.0 0.00 0.00 0.00 83 1058.5
20190220115845 38 301 4.0 7.0 0.00 0.00 0.00 84 1058.5